Regional Weather Roundup
Issued by NWS

Home | Current Version | Previous Version | Graphics & Text | Print | Product List | Glossary On
Versions: 1 2 3 4 5 6 7 8 9 10 11 12 13 14 15 16 17 18 19 20 21 22 23 24 25 26 27 28 29 30 31 32 33 34 35 36 37 38 39 40 41 42 43 44 45 46 47 48 49 50
314
ASUS43 KLSX 092010
RWRMO

WEATHER SUMMARY FOR MISSOURI
NATIONAL WEATHER SERVICE SPRINGFIELD MO
200 PM CST TUE FEB 09 2016

NOTE: "FAIR" INDICATES FEW OR NO CLOUDS BELOW 12,000 FEET WITH NO
       SIGNIFICANT WEATHER AND/OR OBSTRUCTIONS TO VISIBILITY.
       CURRENT SKY AND/OR WEATHER CONDITIONS ARE NOT AVAILABLE FOR
       CHILLICOTHE AND FARMINGTON.

MOZ001>031-035>038-043-044-053-054-092100-
...NORTHERN AND WESTERN MISSOURI...

CITY           SKY/WX    TMP DP  RH WIND       PRES   REMARKS
KANSAS CTY INT MOSUNNY   27  10  49 NW20G26   30.17F WCI  13
KANSAS C DTWN  SUNNY     30   9  41 N17G28    30.19F WCI  18
LEE`S SUMMIT   SUNNY     29   9  43 NW17      30.16F WCI  17
ST JOSEPH      SUNNY     27   7  42 NW20G30   30.22F WCI  13
CHILLICOTHE      N/A     26  10  50 NW15G23   30.16F WCI  14
KIRKSVILLE     FLURRIES  23   7  50 NW16G28   30.07F WCI  10

$$
MOZ066>068-077>081-088>096-101>105-092100-
...SOUTHWEST MISSOURI...

CITY           SKY/WX    TMP DP  RH WIND       PRES   REMARKS
SPRINGFIELD    MOSUNNY   33   9  36 NW22G29   30.11S WCI  21
JOPLIN         SUNNY     38   8  29 NW20      30.18F WCI  28

$$
MOZ032>034-039>042-045>050-055>058-069>072-092100-
...CENTRAL MISSOURI...

CITY           SKY/WX    TMP DP  RH WIND       PRES   REMARKS
COLUMBIA       CLOUDY    25   9  50 NW21G30   30.08R WCI  11
JEFFERSON CITY CLOUDY    26  10  50 NW21G28   30.11S WCI  12
ROLLA          CLOUDY    23  12  62 W21       30.04S WCI   8
SEDALIA        MOSUNNY   28  12  51 NW20G28   30.14F WCI  15
WHITEMAN AFB   MOSUNNY   28   9  45 NW21G29   30.13F WCI  14
WARRENSBURG    MOSUNNY   30  12  47 W16       30.16F WCI  19
OSAGE BEACH    MOSUNNY   28   9  43 W12G25    30.09F WCI  18

$$
MOZ051-052-059>065-092100-
...EAST CENTRAL MISSOURI...

CITY           SKY/WX    TMP DP  RH WIND       PRES   REMARKS
ST LOUIS INTL  FLURRIES  23  11  60 NW21G31   30.02S WCI   8
SPIRIT OF STL  CLOUDY    24  12  60 NW18      30.04S WCI  10
ST CHARLES     LGT SNOW  21  13  71 NW18      30.03S WCI   6

$$
MOZ072>076-082>087-097>100-106>115-092100-
...SOUTH CENTRAL AND SOUTHEAST MISSOURI...

CITY           SKY/WX    TMP DP  RH WIND       PRES   REMARKS
CAPE GIRARDEAU CLOUDY    25  13  60 NW18      30.03R WCI  11
FARMINGTON     CLOUDY    23  13  65 NW16G25   30.01R WCI  10
POPLAR BLUFF   CLOUDY    30  11  45 NW15G23   30.03S WCI  19
WEST PLAINS    PTSUNNY   31   9  39 NW15G23   30.05S WCI  20

$$




USA.gov is the U.S. government's official web portal to all federal, state and local government web resources and services.